FENGYUN 1C DEB, 31879

Orbit data source: Space-Track

FENGYUN 1C DEB, 31879 is space debris in SSO originally from a launch on Mon, 10 May 1999 UTC launched from the Taiyaun Space Center, China (TSC). Fengyun 1C debris stems from the Chinese weather satellite Fengyun-1C, which was intentionally destroyed by a Chinese anti-satellite missile in 2007. This event dramatically increased the amount of space debris, with thousands of trackable fragments posing hazards to satellites and human spaceflight. The Fengyun 1C debris cloud has become a focal point in discussions about space sustainability and the need for international regulations to prevent the creation of new debris.

Loading next visibility...
Identifier
31879, 1999-025CKE
Orbit
SSO
Country
Flag of CNCN / PRC
Related business
Manufacturer
Unknown
Mission
Spacecraft
Bus & Motor
Unknown
Mass
Unknown
Launch date (UTC)
1999-05-10 (27 years ago)
Launch vehicle
Unknown
Launch site
Taiyaun Space Center, China (TSC)
Object type
Payload
Rocket body
Debris
Shape & HBR
Unknown shape, 0.1 m
Radar Cross Section
Small (<0.1 m²)

Expand to show TLE details & history
Last TLE update: 2 days ago

TLE from 2 days ago
0 FENGYUN 1C DEB
1 31879U 99025CKE 26144.47393339  .00000661  00000-0  16725-3 0  9998
2 31879  99.6928  50.4679 0206838 284.4101  73.4210 14.43414050655572
Epoch: 2026-05-24T11:22Z
TLE epoch observation values (Epoch: 2026-05-24T11:22:27.844Z)
Latitude
-0.00009°
Longitude
-2.22366°
Altitude
710.919 km
Speed
7.521 km/s
True Right ascension
03h 21m 52s
True Declination
0° 00' 00"
Sunlit
Object was in daylight at epoch
Visualization orbit readout
Latitude
Unknown
Longitude
Unknown
Altitude
Unknown
Speed
Unknown
Apparent Right ascension
Unknown
Apparent Declination
Unknown
Sunlit
N/A
Visualization observer readout
Local Sidereal Time
13:59:32
Azimuth
Unknown
Elevation
Unknown
Doppler factor
Unknown
Orbital elements
Apogee altitude
891.738 km
Perigee altitude
597.095 km
Semi-major axis
7,122.553 km
Eccentricity
0.02068
Inclination
99.6928°
RAAN
50.4679°
Arg. of periapsis
284.4101°
True anomaly
75.70892°
Mean anomaly
73.421°
Eccentric anomaly
74.56334°
Mean motion
3.61068 °/min
Orbital period
99.7 mins
BSTAR
0.00016725
Loading maneuver chart data...
Computing Atmospheric mass density...

Documentation

Showing up to 5 results
|